アトラス彗星

C/2019 N1 ( ATLAS )

English version
Home page
Updated on December 9, 2019

---------------------------------------------------------------------

・ プロフィール

発見日 2019年7月5日
発見光度 18.6等
発見者 Asteroid Terrestrial-Impact Last Alert System (ATLAS) search program

・ 写真集

・ 軌道要素

Epoch 2020 Dec. 17.0 TT = JDT 2459200.5
T 2020 Dec. 1.78049 TT                                  Williams
q   1.7044143            (2000.0)            P               Q
z  +0.0000307      Peri.  193.44944     -0.93822379     +0.25616946
 +/-0.0000077      Node    13.57213     -0.14502572     +0.31926283
e   0.9999477      Incl.   82.42738     -0.31417138     -0.91238613
From 255 observations 2019 June 10-Nov. 1, mean residual 0".4.

・ 星図

・ 光度変化

        m1 = 6.5 + 5 logΔ + 10.0 log r

---------------------------------------------------------------------

軌道要素はM.P.E.C. 2019-V116に掲載されたものです。
星図はステラナビゲータ Ver.10 (アストロアーツ) で作成したものです。
光度グラフはComet for Windowsで作成したものです。

---------------------------------------------------------------------

Copyright(C) Seiichi Yoshida (comet@aerith.net). All rights reserved.